M I D A S
Marine Information and Data Acquisition System
Tripno 1477 of the Zeeleeuw from 2008-02-13 08:18:54 to 2008-02-13 15:43:21
Back to CruiseResearch ActivitiesStationsMapUnderway DataData graphs

EquipmentUnitsComments
TimeDGPSUTC
LatitudeDGPSDM.mWGS84
LongitudeDGPSDM.mWGS84
SpeedMeteo Stationm/sRelative wind speed
DirectionMeteo StationdegRelative wind direction
TemperatureMeteo Stationdeg CelciusAir temperature
PressureMeteo StationPaAtmospheric pressure
HumidityMeteo Station%Relative humidity
Missing or incorrect values are displayed as -999
Metereological data collected by the RV Zeeleeuw from 2008-02-13 08:19:25 to 2008-02-13 15:53:38
Time Latitude Longitude Speed Direction Temperature Pressure Humidity
2008-02-13 08:20 51°13.664 2°55.955 -999 -999 -999 -999 -999
2008-02-13 08:21 51°13.663 2°55.954 -999 -999 -999 -999 -999
2008-02-13 08:22 51°13.67 2°55.923 -999 -999 -999 -999 -999
2008-02-13 08:23 51°13.698 2°55.819 -999 -999 -999 -999 -999
2008-02-13 08:24 51°13.757 2°55.71 -999 -999 -999 -999 -999
2008-02-13 08:25 51°13.839 2°55.645 -999 -999 -999 -999 -999
2008-02-13 08:26 51°13.922 2°55.644 -999 -999 -999 -999 -999
2008-02-13 08:27 51°13.957 2°55.667 -999 -999 -999 -999 -999
2008-02-13 08:28 51°13.973 2°55.608 -999 -999 -999 -999 -999
2008-02-13 08:29 51°14.034 2°55.507 -999 -999 -999 -999 -999
2008-02-13 08:30 51°14.1 2°55.442 -999 -999 -999 -999 -999
2008-02-13 08:31 51°14.163 2°55.384 -999 -999 -999 -999 -999
2008-02-13 08:32 51°14.226 2°55.304 -999 -999 -999 -999 -999
2008-02-13 08:33 51°14.298 2°55.183 -999 -999 -999 -999 -999
2008-02-13 08:34 51°14.368 2°55.011 -999 -999 -999 -999 -999
2008-02-13 08:35 51°14.469 2°54.792 -999 -999 -999 -999 -999
2008-02-13 08:36 51°14.636 2°54.613 -999 -999 -999 -999 -999
2008-02-13 08:37 51°14.821 2°54.455 -999 -999 -999 -999 -999
2008-02-13 08:38 51°15.005 2°54.299 -999 -999 -999 -999 -999
2008-02-13 08:39 51°15.183 2°54.123 -999 -999 -999 -999 -999
2008-02-13 08:40 51°15.364 2°53.948 -999 -999 -999 -999 -999
2008-02-13 08:41 51°15.548 2°53.78 -999 -999 -999 -999 -999
2008-02-13 08:42 51°15.732 2°53.61 -999 -999 -999 -999 -999
2008-02-13 08:43 51°15.917 2°53.445 -999 -999 -999 -999 -999
2008-02-13 08:44 51°16.104 2°53.284 -999 -999 -999 -999 -999
2008-02-13 08:45 51°16.299 2°53.147 -999 -999 -999 -999 -999
2008-02-13 08:46 51°16.491 2°53.004 -999 -999 -999 -999 -999
2008-02-13 08:47 51°16.684 2°52.866 -999 -999 -999 -999 -999
2008-02-13 08:48 51°16.877 2°52.734 -999 -999 -999 -999 -999
2008-02-13 08:49 51°17.075 2°52.613 -999 -999 -999 -999 -999
2008-02-13 08:50 51°17.277 2°52.514 -999 -999 -999 -999 -999
2008-02-13 08:51 51°17.483 2°52.452 -999 -999 -999 -999 -999
2008-02-13 08:52 51°17.693 2°52.425 -999 -999 -999 -999 -999
2008-02-13 08:53 51°17.899 2°52.442 -999 -999 -999 -999 -999
2008-02-13 08:54 51°18.074 2°52.589 -999 -999 -999 -999 -999
2008-02-13 08:55 51°18.222 2°52.801 -999 -999 -999 -999 -999
2008-02-13 08:56 51°18.374 2°53.007 -999 -999 -999 -999 -999
2008-02-13 08:57 51°18.526 2°53.213 -999 -999 -999 -999 -999
2008-02-13 08:58 51°18.679 2°53.413 -999 -999 -999 -999 -999
2008-02-13 08:59 51°18.83 2°53.617 -999 -999 -999 -999 -999
2008-02-13 09:00 51°19 2°53.777 -999 -999 -999 -999 -999
2008-02-13 09:01 51°19.178 2°53.918 -999 -999 -999 -999 -999
2008-02-13 09:02 51°19.346 2°54.083 -999 -999 -999 -999 -999
2008-02-13 09:03 51°19.509 2°54.259 -999 -999 -999 -999 -999
2008-02-13 09:04 51°19.665 2°54.448 -999 -999 -999 -999 -999
2008-02-13 09:05 51°19.82 2°54.637 -999 -999 -999 -999 -999
2008-02-13 09:06 51°19.977 2°54.823 -999 -999 -999 -999 -999
2008-02-13 09:07 51°20.134 2°55.012 -999 -999 -999 -999 -999
2008-02-13 09:08 51°20.292 2°55.203 -999 -999 -999 -999 -999
2008-02-13 09:09 51°20.45 2°55.392 -999 -999 -999 -999 -999
2008-02-13 09:10 51°20.608 2°55.577 -999 -999 -999 -999 -999
2008-02-13 09:11 51°20.764 2°55.769 -999 -999 -999 -999 -999
2008-02-13 09:12 51°20.922 2°55.958 -999 -999 -999 -999 -999
2008-02-13 09:13 51°21.072 2°56.162 -999 -999 -999 -999 -999
2008-02-13 09:14 51°21.223 2°56.364 -999 -999 -999 -999 -999
2008-02-13 09:15 51°21.367 2°56.578 -999 -999 -999 -999 -999
2008-02-13 09:16 51°21.513 2°56.791 -999 -999 -999 -999 -999
2008-02-13 09:17 51°21.659 2°57.003 -999 -999 -999 -999 -999
2008-02-13 09:18 51°21.807 2°57.214 -999 -999 -999 -999 -999
2008-02-13 09:19 51°21.955 2°57.428 -999 -999 -999 -999 -999
2008-02-13 09:20 51°22.101 2°57.643 -999 -999 -999 -999 -999
2008-02-13 09:21 51°22.246 2°57.858 -999 -999 -999 -999 -999
2008-02-13 09:22 51°22.392 2°58.075 -999 -999 -999 -999 -999
2008-02-13 09:23 51°22.538 2°58.291 -999 -999 -999 -999 -999
2008-02-13 09:24 51°22.685 2°58.508 -999 -999 -999 -999 -999
2008-02-13 09:25 51°22.831 2°58.727 -999 -999 -999 -999 -999
2008-02-13 09:26 51°22.977 2°58.945 -999 -999 -999 -999 -999
2008-02-13 09:27 51°23.12 2°59.164 -999 -999 -999 -999 -999
2008-02-13 09:28 51°23.265 2°59.381 -999 -999 -999 -999 -999
2008-02-13 09:29 51°23.409 2°59.597 -999 -999 -999 -999 -999
2008-02-13 09:30 51°23.553 2°59.813 -999 -999 -999 -999 -999
2008-02-13 09:31 51°23.697 3°0.031 -999 -999 -999 -999 -999
2008-02-13 09:32 51°23.875 3°0.128 -999 -999 -999 -999 -999
2008-02-13 09:33 51°24.035 2°59.914 -999 -999 -999 -999 -999
2008-02-13 09:34 51°24.168 2°59.631 -999 -999 -999 -999 -999
2008-02-13 09:35 51°24.219 2°59.279 -999 -999 -999 -999 -999
2008-02-13 09:36 51°24.256 2°58.918 -999 -999 -999 -999 -999
2008-02-13 09:37 51°24.292 2°58.557 -999 -999 -999 -999 -999
2008-02-13 09:38 51°24.328 2°58.195 -999 -999 -999 -999 -999
2008-02-13 09:39 51°24.366 2°57.833 -999 -999 -999 -999 -999
2008-02-13 09:40 51°24.406 2°57.472 -999 -999 -999 -999 -999
2008-02-13 09:41 51°24.497 2°57.147 -999 -999 -999 -999 -999
2008-02-13 09:42 51°24.603 2°56.828 -999 -999 -999 -999 -999
2008-02-13 09:43 51°24.706 2°56.507 -999 -999 -999 -999 -999
2008-02-13 09:44 51°24.806 2°56.185 -999 -999 -999 -999 -999
2008-02-13 09:45 51°24.913 2°55.867 -999 -999 -999 -999 -999
2008-02-13 09:46 51°25.022 2°55.551 -999 -999 -999 -999 -999
2008-02-13 09:47 51°25.133 2°55.235 -999 -999 -999 -999 -999
2008-02-13 09:48 51°25.245 2°54.919 -999 -999 -999 -999 -999
2008-02-13 09:49 51°25.356 2°54.605 -999 -999 -999 -999 -999
2008-02-13 09:50 51°25.467 2°54.29 -999 -999 -999 -999 -999
2008-02-13 09:51 51°25.577 2°53.984 -999 -999 -999 -999 -999
2008-02-13 09:52 51°25.684 2°53.675 -999 -999 -999 -999 -999
2008-02-13 09:53 51°25.792 2°53.362 6.5 1 -999 -999 -999
2008-02-13 09:54 51°25.898 2°53.055 6.8 355 4 103630 100
2008-02-13 09:55 51°26.001 2°52.748 6.4 357 3.9 103630 100
2008-02-13 09:56 51°26.103 2°52.444 6.7 -999 4 103630 100
2008-02-13 09:57 51°26.21 2°52.125 7.8 357 4 103630 100
2008-02-13 09:58 51°26.314 2°51.815 7.8 1 4 103630 100
2008-02-13 09:59 51°26.424 2°51.495 7.6 359 4 103630 100
2008-02-13 10:00 51°26.533 2°51.181 7 359 3.9 103630 100
2008-02-13 10:01 51°26.641 2°50.872 7.6 358 4 103640 100
2008-02-13 10:02 51°26.75 2°50.56 7.5 353 4.1 103640 100
2008-02-13 10:03 51°26.857 2°50.248 5.8 353 4 103640 100
2008-02-13 10:04 51°26.966 2°49.933 6.7 355 4 103640 100
2008-02-13 10:05 51°27.075 2°49.625 7.1 358 4 103650 100
2008-02-13 10:06 51°27.181 2°49.316 7.1 355 4 103640 100
2008-02-13 10:07 51°27.288 2°49.006 6.1 354 4.1 103640 100
2008-02-13 10:08 51°27.393 2°48.701 6.2 352 4.1 103650 100
2008-02-13 10:09 51°27.501 2°48.392 6.2 358 4.2 103650 100
2008-02-13 10:10 51°27.607 2°48.081 7.1 357 4.3 103650 100
2008-02-13 10:11 51°27.712 2°47.766 5.2 358 4.2 103650 100
2008-02-13 10:12 51°27.817 2°47.454 7.8 352 4.3 103650 100
2008-02-13 10:13 51°27.924 2°47.144 7.6 353 4.3 103640 100
2008-02-13 10:14 51°28.029 2°46.833 5.8 351 4.2 103650 100
2008-02-13 10:15 51°28.134 2°46.52 6.4 349 4.2 103650 100
2008-02-13 10:16 51°28.238 2°46.205 6.2 349 4.3 103650 100
2008-02-13 10:17 51°28.344 2°45.893 7.1 353 4.4 103650 100
2008-02-13 10:18 51°28.453 2°45.578 7.9 352 4.3 103650 100
2008-02-13 10:19 51°28.557 2°45.271 6.8 359 4.4 103640 100
2008-02-13 10:20 51°28.665 2°44.961 7.9 359 4.5 103650 100
2008-02-13 10:21 51°28.772 2°44.652 6 -999 4.5 103640 100
2008-02-13 10:22 51°28.879 2°44.343 6.9 355 4.6 103640 100
2008-02-13 10:23 51°29.025 2°44.11 10 345 4.6 103640 100
2008-02-13 10:24 51°29.217 2°44.015 10 349 4.6 103640 100
2008-02-13 10:25 51°29.411 2°43.926 9.4 343 4.6 103640 100
2008-02-13 10:26 51°29.606 2°43.836 9.2 344 4.6 103640 100
2008-02-13 10:27 51°29.805 2°43.746 8.9 346 4.5 103640 100
2008-02-13 10:28 51°29.99 2°43.629 8.2 354 4.6 103640 100
2008-02-13 10:29 51°30.159 2°43.43 8.3 347 4.8 103630 100
2008-02-13 10:30 51°30.328 2°43.231 8.5 352 4.8 103640 100
2008-02-13 10:31 51°30.5 2°43.037 11 351 4.8 103640 100
2008-02-13 10:32 51°30.691 2°42.947 11 346 4.8 103640 100
2008-02-13 10:33 51°30.888 2°42.894 8.6 349 4.6 103650 100
2008-02-13 10:34 51°31.086 2°42.837 9 345 4.6 103650 100
2008-02-13 10:35 51°31.283 2°42.796 11 344 4.6 103650 100
2008-02-13 10:36 51°31.483 2°42.761 10 345 4.5 103650 100
2008-02-13 10:37 51°31.678 2°42.759 10.1 344 4.6 103660 100
2008-02-13 10:38 51°31.875 2°42.76 10.8 342 4.7 103640 100
2008-02-13 10:39 51°32.076 2°42.758 11.2 345 4.6 103650 100
2008-02-13 10:40 51°32.271 2°42.756 11.7 344 4.6 103650 100
2008-02-13 10:41 51°32.469 2°42.766 11.9 349 4.5 103650 100
2008-02-13 10:42 51°32.667 2°42.782 10.5 346 4.5 103650 100
2008-02-13 10:43 51°32.865 2°42.801 11.5 344 4.4 103650 100
2008-02-13 10:44 51°33.064 2°42.822 4.4 342 4.3 103660 100
2008-02-13 10:45 51°33.266 2°42.844 11 344 4.3 103660 100
2008-02-13 10:46 51°33.46 2°42.871 10.6 344 4.2 103650 100
2008-02-13 10:47 51°33.657 2°42.91 11.5 341 4.2 103650 100
2008-02-13 10:48 51°33.856 2°42.947 11.3 344 4.2 103660 100
2008-02-13 10:49 51°34.047 2°42.985 11 343 4.2 103650 100
2008-02-13 10:50 51°34.24 2°43.023 10.4 345 4.1 103650 100
2008-02-13 10:51 51°34.432 2°43.06 10.3 348 4 103650 100
2008-02-13 10:52 51°34.627 2°43.097 10.5 342 4.1 103650 100
2008-02-13 10:53 51°34.814 2°43.133 10.1 342 4 103660 100
2008-02-13 10:54 51°35.005 2°43.182 10.8 345 4 103650 100
2008-02-13 10:55 51°35.188 2°43.237 10.8 346 4 103650 100
2008-02-13 10:56 51°35.373 2°43.297 11 344 4.1 103650 100
2008-02-13 10:57 51°35.562 2°43.356 11.4 346 4.1 103660 100
2008-02-13 10:58 51°35.744 2°43.413 11.8 349 4.1 103660 100
2008-02-13 10:59 51°35.931 2°43.47 10.7 341 4.1 103660 100
2008-02-13 11:00 51°36.116 2°43.529 11 342 4.1 103650 100
2008-02-13 11:01 51°36.302 2°43.585 9.9 344 4.1 103660 100
2008-02-13 11:02 51°36.487 2°43.643 12 346 4 103660 100
2008-02-13 11:03 51°36.674 2°43.702 11.3 342 4 103650 100
2008-02-13 11:04 51°36.858 2°43.759 10.4 346 4 103660 100
2008-02-13 11:05 51°37.025 2°43.809 12 345 4.1 103660 100
2008-02-13 11:06 51°37.21 2°43.865 10.2 347 3.9 103660 100
2008-02-13 11:07 51°37.393 2°43.923 11 339 3.9 103660 100
2008-02-13 11:08 51°37.58 2°43.981 9.8 345 3.9 103660 100
2008-02-13 11:09 51°37.766 2°44.038 11 343 4 103660 100
2008-02-13 11:10 51°37.952 2°44.099 10 345 4 103650 100
2008-02-13 11:11 51°38.138 2°44.158 11.3 345 4 103650 100
2008-02-13 11:12 51°38.292 2°44.006 6.2 3 4 103650 100
2008-02-13 11:13 51°38.406 2°43.714 5.6 4 4 103660 100
2008-02-13 11:14 51°38.449 2°43.379 4.1 -999 4 103670 100
2008-02-13 11:15 51°38.478 2°43.024 3.7 349 4 103660 100
2008-02-13 11:16 51°38.484 2°42.663 3.1 350 4 103660 100
2008-02-13 11:17 51°38.497 2°42.303 4.9 353 4.1 103670 100
2008-02-13 11:18 51°38.509 2°41.941 4.7 355 4.1 103660 100
2008-02-13 11:19 51°38.523 2°41.571 3.8 354 4.1 103660 100
2008-02-13 11:20 51°38.537 2°41.199 4.5 348 4 103660 100
2008-02-13 11:21 51°38.552 2°40.839 3.6 345 4 103670 100
2008-02-13 11:22 51°38.563 2°40.472 3.2 353 3.9 103670 100
2008-02-13 11:23 51°38.572 2°40.105 2.7 360 3.9 103670 100
2008-02-13 11:24 51°38.58 2°39.739 3.6 349 4 103670 100
2008-02-13 11:25 51°38.587 2°39.373 3.5 3 4 103670 100
2008-02-13 11:26 51°38.591 2°39.008 2.7 354 4 103670 100
2008-02-13 11:27 51°38.597 2°38.638 3.2 352 4.1 103670 100
2008-02-13 11:28 51°38.603 2°38.282 4.2 4 4.1 103660 100
2008-02-13 11:29 51°38.61 2°37.914 3.2 2 4.2 103660 100
2008-02-13 11:30 51°38.618 2°37.551 2.8 6 4.2 103660 100
2008-02-13 11:31 51°38.627 2°37.185 3.8 353 4.3 103660 100
2008-02-13 11:32 51°38.634 2°36.825 2.2 356 4.3 103660 100
2008-02-13 11:33 51°38.642 2°36.459 3.6 1 4.3 103660 100
2008-02-13 11:34 51°38.649 2°36.092 3 2 4.4 103660 100
2008-02-13 11:35 51°38.658 2°35.725 1.8 355 4.3 103660 100
2008-02-13 11:36 51°38.667 2°35.349 3.7 2 4.3 103660 100
2008-02-13 11:37 51°38.68 2°34.982 3.9 359 4.3 103650 100
2008-02-13 11:38 51°38.694 2°34.605 3 349 4.3 103650 100
2008-02-13 11:39 51°38.705 2°34.244 3.2 352 4.3 103660 100
2008-02-13 11:40 51°38.68 2°33.877 1.6 350 4.4 103650 100
2008-02-13 11:41 51°38.546 2°33.601 6.3 33 4.5 103650 100
2008-02-13 11:42 51°38.32 2°33.547 5.9 237 4.4 103640 100
2008-02-13 11:43 51°38.09 2°33.525 8.9 31 4.5 103640 100
2008-02-13 11:44 51°37.86 2°33.521 7.3 33 4.5 103640 100
2008-02-13 11:45 51°37.625 2°33.518 9.6 30 4.5 103640 100
2008-02-13 11:46 51°37.4 2°33.517 7.4 32 4.5 103650 100
2008-02-13 11:47 51°37.167 2°33.515 6.8 238 4.5 103640 100
2008-02-13 11:48 51°36.941 2°33.51 5.7 239 4.4 103640 100
2008-02-13 11:49 51°36.71 2°33.502 7.4 32 4.4 103640 100
2008-02-13 11:50 51°36.478 2°33.503 6.7 32 4.5 103620 100
2008-02-13 11:51 51°36.253 2°33.508 8.9 34 4.5 103630 100
2008-02-13 11:52 51°36.021 2°33.52 8.2 32 4.5 103620 100
2008-02-13 11:53 51°35.798 2°33.536 7.8 30 4.5 103620 100
2008-02-13 11:54 51°35.571 2°33.548 9.1 235 4.4 103630 100
2008-02-13 11:55 51°35.344 2°33.559 8.6 36 4.3 103630 100
2008-02-13 11:56 51°35.133 2°33.643 8.4 38 4.3 103620 100
2008-02-13 11:57 51°34.948 2°33.811 10.3 318 4.3 103620 100
2008-02-13 11:58 51°34.813 2°34.056 12.2 317 4.4 103610 100
2008-02-13 11:59 51°34.681 2°34.293 11.5 35 4.3 103620 100
2008-02-13 12:00 51°34.543 2°34.531 9.1 316 4.2 103620 100
2008-02-13 12:01 51°34.404 2°34.768 11.6 319 4.3 103620 100
2008-02-13 12:02 51°34.266 2°35.01 9.4 322 4.3 103620 100
2008-02-13 12:03 51°34.128 2°35.253 10.1 318 4.2 103620 100
2008-02-13 12:04 51°33.979 2°35.486 9.1 316 4.2 103620 100
2008-02-13 12:05 51°33.794 2°35.655 10.4 35 4.2 103620 100
2008-02-13 12:06 51°33.569 2°35.713 7.1 234 4.2 103620 100
2008-02-13 12:07 51°33.342 2°35.644 5.4 237 4.2 103620 100
2008-02-13 12:08 51°33.111 2°35.555 8.9 32 4.3 103620 100
2008-02-13 12:09 51°32.876 2°35.467 6.9 32 4.3 103610 100
2008-02-13 12:10 51°32.647 2°35.381 7 241 4.3 103620 100
2008-02-13 12:11 51°32.413 2°35.294 6.4 238 4.3 103620 100
2008-02-13 12:12 51°32.175 2°35.207 6.3 37 4.2 103620 100
2008-02-13 12:13 51°31.945 2°35.122 6 38 4.3 103620 100
2008-02-13 12:14 51°31.711 2°35.037 7.2 35 4.2 103620 100
2008-02-13 12:15 51°31.473 2°34.951 6.7 33 4.2 103610 100
2008-02-13 12:16 51°31.242 2°34.869 5.1 235 4.2 103610 100
2008-02-13 12:17 51°31.008 2°34.784 5.8 241 4.2 103610 100
2008-02-13 12:18 51°30.774 2°34.702 7.7 30 4.2 103610 100
2008-02-13 12:19 51°30.542 2°34.617 5.9 240 4.1 103610 100
2008-02-13 12:20 51°30.31 2°34.535 6.8 241 4.1 103610 100
2008-02-13 12:21 51°30.075 2°34.477 7.2 239 4.1 103610 100
2008-02-13 12:22 51°29.843 2°34.495 8.7 36 4.1 103610 100
2008-02-13 12:23 51°29.646 2°34.649 11 33 4.2 103590 100
2008-02-13 12:24 51°29.471 2°34.848 12.1 319 4.1 103600 100
2008-02-13 12:25 51°29.31 2°35.065 11.2 316 4 103600 100
2008-02-13 12:26 51°29.157 2°35.297 11.9 317 4 103590 100
2008-02-13 12:27 51°29.019 2°35.534 10.3 317 3.9 103590 100
2008-02-13 12:28 51°28.877 2°35.772 12.5 38 3.9 103590 100
2008-02-13 12:29 51°28.734 2°36.015 10.4 317 3.8 103600 100
2008-02-13 12:30 51°28.601 2°36.255 12.9 320 3.9 103600 100
2008-02-13 12:31 51°28.461 2°36.501 12.7 319 3.9 103580 100
2008-02-13 12:32 51°28.323 2°36.738 11.8 315 3.8 103600 100
2008-02-13 12:33 51°28.181 2°36.986 10.2 320 3.7 103590 100
2008-02-13 12:34 51°28.14 2°37.195 9.7 352 3.6 103610 100
2008-02-13 12:35 51°28.214 2°37.102 4.8 7 3.5 103600 100
2008-02-13 12:36 51°28.313 2°36.827 6.8 356 3.5 103600 100
2008-02-13 12:37 51°28.432 2°36.552 7 358 3.4 103600 100
2008-02-13 12:38 51°28.555 2°36.271 6.6 357 3.3 103600 100
2008-02-13 12:39 51°28.683 2°35.984 5.1 4 3.4 103590 100
2008-02-13 12:40 51°28.808 2°35.702 7.5 358 3.5 103590 100
2008-02-13 12:41 51°28.932 2°35.43 7.7 359 3.5 103590 100
2008-02-13 12:42 51°29.056 2°35.15 5.4 4 3.6 103590 100
2008-02-13 12:43 51°29.178 2°34.867 7.5 357 3.6 103590 100
2008-02-13 12:44 51°29.298 2°34.583 8.9 358 3.6 103580 100
2008-02-13 12:45 51°29.417 2°34.301 6.7 357 3.5 103580 100
2008-02-13 12:46 51°29.534 2°34.019 5.3 2 3.5 103590 100
2008-02-13 12:47 51°29.653 2°33.732 6 6 3.6 103580 100
2008-02-13 12:48 51°29.751 2°33.425 5.5 358 3.6 103590 100
2008-02-13 12:49 51°29.764 2°33.065 2.8 6 3.7 103590 100
2008-02-13 12:50 51°29.704 2°32.699 1 358 3.7 103590 100
2008-02-13 12:51 51°29.642 2°32.341 0.8 10 3.7 103590 100
2008-02-13 12:52 51°29.577 2°31.992 0.4 37 3.7 103580 100
2008-02-13 12:53 51°29.499 2°31.64 0.7 33 3.8 103590 100
2008-02-13 12:54 51°29.407 2°31.287 0.4 32 3.8 103580 100
2008-02-13 12:55 51°29.315 2°30.94 1 250 4 103580 100
2008-02-13 12:56 51°29.223 2°30.594 1.5 318 4.1 103580 100
2008-02-13 12:57 51°29.127 2°30.244 3.8 35 4.1 103580 100
2008-02-13 12:58 51°29.012 2°29.908 3.2 317 4.2 103580 100
2008-02-13 12:59 51°28.894 2°29.571 2.7 318 4.2 103580 100
2008-02-13 13:00 51°28.774 2°29.235 2.2 317 4.2 103580 100
2008-02-13 13:01 51°28.657 2°28.904 2.6 321 4.1 103580 100
2008-02-13 13:02 51°28.536 2°28.563 2.5 37 4.1 103580 100
2008-02-13 13:03 51°28.419 2°28.23 1.9 323 4.1 103580 100
2008-02-13 13:04 51°28.304 2°27.893 1.8 318 4.1 103580 100
2008-02-13 13:05 51°28.191 2°27.558 1.3 32 4.1 103580 100
2008-02-13 13:06 51°28.079 2°27.227 0.8 333 4.2 103570 100
2008-02-13 13:07 51°27.967 2°26.895 1 336 4.2 103570 100
2008-02-13 13:08 51°27.854 2°26.563 0.2 356 4 103570 100
2008-02-13 13:09 51°27.743 2°26.231 0.1 7 4 103570 100
2008-02-13 13:10 51°27.63 2°25.901 0.4 241 4.1 103570 100
2008-02-13 13:11 51°27.517 2°25.57 0.7 243 4.2 103570 100
2008-02-13 13:12 51°27.405 2°25.236 0.8 31 4.3 103560 100
2008-02-13 13:13 51°27.29 2°24.9 0.7 235 4.4 103570 100
2008-02-13 13:14 51°27.158 2°24.58 1.3 239 4.4 103560 100
2008-02-13 13:15 51°27.007 2°24.279 1.6 35 4.5 103560 100
2008-02-13 13:16 51°26.842 2°23.998 1.9 250 4.4 103570 100
2008-02-13 13:17 51°26.666 2°23.735 3.7 246 4.4 103570 100
2008-02-13 13:18 51°26.484 2°23.482 6 242 4.4 103560 100
2008-02-13 13:19 51°26.304 2°23.241 3.7 239 4.4 103560 100
2008-02-13 13:20 51°26.12 2°22.989 2.2 239 4.3 103560 100
2008-02-13 13:21 51°25.936 2°22.745 3.8 242 4.3 103560 100
2008-02-13 13:22 51°25.751 2°22.507 3 255 4.3 103560 100
2008-02-13 13:23 51°25.568 2°22.268 2.6 245 4.4 103560 100
2008-02-13 13:24 51°25.386 2°22.027 2.8 257 4.4 103570 100
2008-02-13 13:25 51°25.204 2°21.786 1.3 258 4.4 103570 100
2008-02-13 13:26 51°25.024 2°21.549 0.9 255 4.4 103560 100
2008-02-13 13:27 51°24.842 2°21.3 3.3 37 4.5 103560 100
2008-02-13 13:28 51°24.662 2°21.058 4 244 4.5 103560 100
2008-02-13 13:29 51°24.483 2°20.816 5.3 239 4.5 103560 100
2008-02-13 13:30 51°24.304 2°20.572 3.9 248 4.5 103560 100
2008-02-13 13:31 51°24.126 2°20.425 9.1 236 4.5 103560 100
2008-02-13 13:32 51°24.012 2°20.594 12.2 319 4.5 103540 100
2008-02-13 13:33 51°23.912 2°20.865 12.2 321 4.4 103530 100
2008-02-13 13:34 51°23.846 2°21.166 11.6 321 4.3 103540 100
2008-02-13 13:35 51°23.779 2°21.466 10.5 317 4.2 103530 100
2008-02-13 13:36 51°23.712 2°21.768 13.3 323 4.3 103530 100
2008-02-13 13:37 51°23.647 2°22.073 11.8 321 4.1 103530 100
2008-02-13 13:38 51°23.58 2°22.377 12 320 4.1 103540 100
2008-02-13 13:39 51°23.512 2°22.682 11.5 320 4 103530 100
2008-02-13 13:40 51°23.44 2°22.987 11.8 315 4 103540 100
2008-02-13 13:41 51°23.37 2°23.291 13.1 322 4.1 103530 100
2008-02-13 13:42 51°23.298 2°23.595 11.2 323 4.1 103520 100
2008-02-13 13:43 51°23.225 2°23.899 10.9 321 4 103530 100
2008-02-13 13:44 51°23.154 2°24.203 10.6 318 4 103520 100
2008-02-13 13:45 51°23.085 2°24.508 13.7 318 4 103540 100
2008-02-13 13:46 51°23.018 2°24.812 13.6 323 3.9 103530 100
2008-02-13 13:47 51°22.933 2°25.108 13.4 317 3.7 103520 100
2008-02-13 13:48 51°22.804 2°25.368 12.9 32 3.6 103530 100
2008-02-13 13:49 51°22.664 2°25.62 12.1 318 3.5 103530 100
2008-02-13 13:50 51°22.522 2°25.869 12.7 319 3.4 103520 100
2008-02-13 13:51 51°22.38 2°26.119 10 315 3.4 103520 100
2008-02-13 13:52 51°22.237 2°26.366 10.8 319 3.3 103530 100
2008-02-13 13:53 51°22.095 2°26.613 10.6 37 3.2 103520 100
2008-02-13 13:54 51°21.952 2°26.861 11.6 319 3.2 103520 100
2008-02-13 13:55 51°21.816 2°27.112 10.6 316 3.2 103520 100
2008-02-13 13:56 51°21.767 2°27.411 12.8 319 3.2 103520 100
2008-02-13 13:57 51°21.759 2°27.727 10.9 322 3.1 103510 100
2008-02-13 13:58 51°21.749 2°28.046 12.9 327 3.1 103520 100
2008-02-13 13:59 51°21.739 2°28.368 13.1 326 3.1 103520 100
2008-02-13 14:00 51°21.728 2°28.69 11.5 324 3.1 103530 100
2008-02-13 14:01 51°21.718 2°29.013 10.1 322 3.2 103530 100
2008-02-13 14:02 51°21.714 2°29.335 12.6 326 3.2 103520 100
2008-02-13 14:03 51°21.712 2°29.656 13.5 327 3.2 103510 100
2008-02-13 14:04 51°21.708 2°29.977 12.5 323 3.3 103520 100
2008-02-13 14:05 51°21.693 2°30.3 11.3 322 3.2 103520 100
2008-02-13 14:06 51°21.68 2°30.623 12.8 325 3.1 103520 100
2008-02-13 14:07 51°21.668 2°30.947 11.6 325 2.9 103530 100
2008-02-13 14:08 51°21.655 2°31.272 13.5 326 2.9 103520 100
2008-02-13 14:09 51°21.639 2°31.598 14.2 326 3 103520 100
2008-02-13 14:10 51°21.625 2°31.923 11.8 324 2.9 103520 100
2008-02-13 14:11 51°21.608 2°32.25 11.8 321 2.9 103520 100
2008-02-13 14:12 51°21.589 2°32.579 11.4 322 2.8 103520 100
2008-02-13 14:13 51°21.57 2°32.907 12.8 325 2.7 103510 100
2008-02-13 14:14 51°21.551 2°33.236 12.4 325 2.7 103520 100
2008-02-13 14:15 51°21.537 2°33.569 14 321 2.7 103520 100
2008-02-13 14:16 51°21.53 2°33.905 11.9 323 2.7 103510 100
2008-02-13 14:17 51°21.52 2°34.245 11.6 324 2.7 103510 100
2008-02-13 14:18 51°21.513 2°34.583 12 326 2.7 103520 100
2008-02-13 14:19 51°21.506 2°34.92 14.1 321 2.8 103520 100
2008-02-13 14:20 51°21.498 2°35.257 11.1 325 2.8 103510 100
2008-02-13 14:21 51°21.49 2°35.594 10.9 324 2.8 103510 100
2008-02-13 14:22 51°21.482 2°35.93 12.9 321 2.9 103510 100
2008-02-13 14:23 51°21.469 2°36.266 12.5 326 2.9 103520 100
2008-02-13 14:24 51°21.439 2°36.6 12.6 324 2.9 103520 100
2008-02-13 14:25 51°21.398 2°36.932 10.5 320 2.8 103510 100
2008-02-13 14:26 51°21.354 2°37.266 12.6 321 2.9 103520 100
2008-02-13 14:27 51°21.31 2°37.6 10.9 319 3 103520 100
2008-02-13 14:28 51°21.168 2°37.829 11.2 35 3 103510 100
2008-02-13 14:29 51°21.011 2°38.06 10.7 316 2.9 103500 100
2008-02-13 14:30 51°20.928 2°38.371 12.7 316 2.8 103520 100
2008-02-13 14:31 51°20.891 2°38.707 11.4 322 2.7 103530 100
2008-02-13 14:32 51°20.857 2°39.046 11.6 326 2.7 103520 100
2008-02-13 14:33 51°20.821 2°39.382 12.9 321 2.8 103530 100
2008-02-13 14:34 51°20.769 2°39.714 11.3 322 2.9 103510 100
2008-02-13 14:35 51°20.713 2°40.044 12.7 324 2.8 103520 100
2008-02-13 14:36 51°20.659 2°40.375 13.6 319 2.8 103540 100
2008-02-13 14:37 51°20.604 2°40.707 11.4 320 2.7 103530 100
2008-02-13 14:38 51°20.529 2°41.03 11.6 326 2.8 103530 100
2008-02-13 14:39 51°20.447 2°41.349 12.5 319 2.8 103530 100
2008-02-13 14:40 51°20.364 2°41.672 11.6 319 2.8 103530 100
2008-02-13 14:41 51°20.282 2°41.996 13.3 322 2.8 103530 100
2008-02-13 14:42 51°20.2 2°42.32 13.9 320 2.8 103540 100
2008-02-13 14:43 51°20.121 2°42.626 11.1 319 2.6 103540 100
2008-02-13 14:44 51°20.043 2°42.93 12.1 317 2.6 103530 100
2008-02-13 14:45 51°19.965 2°43.236 11.9 316 2.6 103520 100
2008-02-13 14:46 51°19.888 2°43.543 11 318 2.7 103530 100
2008-02-13 14:47 51°19.809 2°43.852 11.2 316 2.7 103530 100
2008-02-13 14:48 51°19.731 2°44.162 12.3 317 2.6 103520 100
2008-02-13 14:49 51°19.653 2°44.473 12 316 2.7 103520 100
2008-02-13 14:50 51°19.576 2°44.788 12.9 319 2.7 103530 100
2008-02-13 14:51 51°19.5 2°45.107 13.4 316 2.6 103520 100
2008-02-13 14:52 51°19.42 2°45.431 13 318 2.7 103520 100
2008-02-13 14:53 51°19.341 2°45.76 13.3 316 2.8 103520 100
2008-02-13 14:54 51°19.259 2°46.085 14.1 36 2.7 103520 100
2008-02-13 14:55 51°19.178 2°46.408 12.1 321 2.6 103530 100
2008-02-13 14:56 51°19.098 2°46.727 13.3 321 2.7 103530 100
2008-02-13 14:57 51°19.018 2°47.043 11.9 321 2.8 103520 100
2008-02-13 14:58 51°18.939 2°47.362 14.5 321 2.8 103520 100
2008-02-13 14:59 51°18.86 2°47.679 13.5 323 2.7 103530 100
2008-02-13 15:00 51°18.782 2°47.998 11.9 320 2.6 103530 100
2008-02-13 15:01 51°18.705 2°48.318 13.2 323 2.6 103510 100
2008-02-13 15:02 51°18.626 2°48.64 11.7 321 2.5 103510 100
2008-02-13 15:03 51°18.549 2°48.965 12.8 320 2.5 103520 100
2008-02-13 15:04 51°18.473 2°49.294 10.7 319 2.4 103520 100
2008-02-13 15:05 51°18.396 2°49.624 10.1 320 2.5 103510 100
2008-02-13 15:06 51°18.319 2°49.953 11.5 324 2.6 103520 100
2008-02-13 15:07 51°18.241 2°50.279 12.6 321 2.7 103510 100
2008-02-13 15:08 51°18.163 2°50.604 12.1 321 2.6 103520 100
2008-02-13 15:09 51°18.086 2°50.929 10.8 322 2.5 103520 100
2008-02-13 15:10 51°18.006 2°51.252 11.3 319 2.4 103510 100
2008-02-13 15:11 51°17.924 2°51.574 12.9 317 2.4 103510 100
2008-02-13 15:12 51°17.815 2°51.875 11.7 318 2.4 103510 100
2008-02-13 15:13 51°17.648 2°52.084 8.6 35 2.3 103510 100
2008-02-13 15:14 51°17.459 2°52.233 8.8 316 2.2 103510 100
2008-02-13 15:15 51°17.266 2°52.36 9.9 35 2.2 103520 100
2008-02-13 15:16 51°17.072 2°52.466 7.1 36 2 103520 100
2008-02-13 15:17 51°16.898 2°52.582 8.6 30 2 103520 100
2008-02-13 15:18 51°16.727 2°52.698 7.7 234 2.1 103520 100
2008-02-13 15:19 51°16.565 2°52.842 7.6 32 2 103520 100
2008-02-13 15:20 51°16.424 2°53.002 7.4 34 2.1 103520 100
2008-02-13 15:21 51°16.285 2°53.161 10.5 31 2.1 103510 100
2008-02-13 15:22 51°16.147 2°53.321 9.2 33 2.1 103520 100
2008-02-13 15:23 51°16.01 2°53.481 8.2 315 2.1 103510 100
2008-02-13 15:24 51°15.907 2°53.613 6.3 235 2 103510 100
2008-02-13 15:25 51°15.849 2°53.703 6.4 237 2 103520 100
2008-02-13 15:26 51°15.804 2°53.777 5.4 245 1.9 103520 100
2008-02-13 15:27 51°15.744 2°53.848 6.5 240 1.9 103520 100
2008-02-13 15:28 51°15.673 2°53.921 7 245 2 103520 100
2008-02-13 15:29 51°15.602 2°53.997 7.5 247 2 103530 100
2008-02-13 15:30 51°15.531 2°54.072 6.5 249 2 103530 100
2008-02-13 15:31 51°15.442 2°54.136 4.8 246 2 103530 100
2008-02-13 15:32 51°15.346 2°54.203 6.4 248 2.1 103520 100
2008-02-13 15:33 51°15.27 2°54.258 6.8 256 2.2 103530 100
2008-02-13 15:34 51°15.171 2°54.321 5.8 241 2.2 103530 100
2008-02-13 15:35 51°15.056 2°54.394 7.1 239 2.3 103530 100
2008-02-13 15:36 51°14.943 2°54.482 8.1 36 2.3 103530 100
2008-02-13 15:37 51°14.837 2°54.6 6.8 32 2.2 103520 100
2008-02-13 15:38 51°14.723 2°54.687 8.2 236 2.1 103520 100
2008-02-13 15:39 51°14.615 2°54.8 9 31 2.1 103520 100
2008-02-13 15:40 51°14.506 2°54.917 7.1 239 2 103510 100
2008-02-13 15:41 51°14.399 2°55.044 9.7 33 1.9 103520 100
2008-02-13 15:42 51°14.305 2°55.183 6.5 36 1.9 103520 100
2008-02-13 15:43 51°14.23 2°55.307 6.8 38 1.8 103520 100
2008-02-13 15:44 51°14.146 2°55.401 5 235 1.8 103530 100
2008-02-13 15:45 51°14.052 2°55.472 5.1 35 1.7 103530 100
2008-02-13 15:46 51°13.961 2°55.547 4.2 38 1.7 103530 100
2008-02-13 15:47 51°13.872 2°55.608 5.2 246 1.8 103530 100
2008-02-13 15:48 51°13.789 2°55.671 4.1 32 1.8 103530 100
2008-02-13 15:49 51°13.724 2°55.766 4.1 37 1.8 103530 100
2008-02-13 15:50 51°13.684 2°55.871 3.3 323 1.9 103530 100
2008-02-13 15:51 51°13.67 2°55.938 2.6 328 2 103530 100
2008-02-13 15:52 51°13.666 2°55.95 3.7 318 2 103530 100
2008-02-13 15:53 51°13.667 2°55.952 2 235 2 103530 100